Location: Newark
(34.0131°N, 4.3314°W)
Time: 21:51:57
(UTC+00:00)

SR - Pass Details

Date: 17 October 2019
Orbit: 574 x 882 km, 66.7° (Epoch: 12 November)

Event Time Altitude Azimuth Distance (km) Brightness Sun altitude
Rises 09:35:18 0° 317° (NW) 3,478 ? 34.4°
Reaches altitude 10° 09:38:21 10° 302° (WNW) 2,541 ? 34.9°
Maximum altitude 09:42:42 22° 255° (WSW) 1,834 ? 35.5°
Drops below altitude 10° 09:47:00 10° 207° (SSW) 2,487 ? 36.1°
Sets 09:49:57 0° 192° (SSW) 3,383 ? 36.5°
